Flag for India Weather past 2 weeks in Karaikudi, Tamil Nadu, India

Now
86 °F

Passing clouds.


Feels Like: 97 °F
Forecast: 81 / 101 °F
Wind: 5 mph from West

Location: Tiruchchirapalli

Current Time: May 25, 2015 at 3:46:30 AM

Latest Report: May 25, 2015 at 2:40 AM


Visibility: 4 mi

Pressure: 29.74 "Hg

Humidity: 75%

Dew point: 77 °F

Location of KaraikudiLocation

Historic Weather in Karaikudi — Graph

°F

Karaikudi temperature yesterday

Maximum temperature yesterday: 100 °F (at 3:10 PM)
Minimum temperature yesterday: 81 °F (at 4:40 AM)
Average temperature yesterday: 91 °F

Past Weeks' High & Low Weather Summary

 TemperatureHumidityPressure
High100 °F (May 24, 3:10 PM)100% (May 12, 5:40 PM)29.83 "Hg (May 12, 5:40 PM)
Low75 °F (May 13, 5:40 AM)44% (May 22, 2:10 PM)29.62 "Hg (May 10, 3:40 PM)
Average86 °F75%29.74 "Hg
* Reported May 10 8:40 AM — May 25 2:10 AM, Karaikudi, Weather by CustomWeather, © 2015

Note: Actual official high and low records may vary slightly from our data, if they occured in-between our weather recording intervals... More about our weather records

Advertising

Karaikudi weather history for previous 24 hours

 ConditionsComfort  
Time TempWeatherWind HumidityBarometerVisibility
2:10 AM
Mon, May 25
86 °FPassing clouds.7 mph79%29.74 "Hg4 mi
1:40 AM86 °FPassing clouds.5 mph79%29.74 "Hg4 mi
1:10 AM86 °FPassing clouds.5 mph79%29.74 "Hg4 mi
12:40 AM88 °FPassing clouds.6 mph75%29.77 "Hg4 mi
12:10 AM88 °FPassing clouds.7 mph79%29.77 "Hg4 mi
11:40 PM
Sun, May 24
88 °FPassing clouds.3 mph79%29.77 "Hg4 mi
11:10 PM90 °FPassing clouds.5 mph63%29.77 "Hg4 mi
10:40 PM90 °FPassing clouds.2 mph63%29.77 "Hg4 mi
10:10 PM90 °FPassing clouds.5 mph63%29.80 "Hg4 mi
9:40 PM91 °FPassing clouds.5 mph59%29.77 "Hg4 mi
9:10 PM91 °FPassing clouds.5 mph59%29.77 "Hg4 mi
8:40 PM91 °FPassing clouds.2 mph59%29.77 "Hg5 mi
8:10 PM91 °FPassing clouds.5 mph63%29.74 "Hg5 mi
7:40 PM91 °FPassing clouds.5 mph63%29.74 "Hg5 mi
7:10 PM93 °FPassing clouds.6 mph59%29.71 "Hg5 mi
6:40 PM95 °FPassing clouds.5 mph53%29.71 "Hg5 mi
6:10 PM97 °FPassing clouds.9 mph50%29.71 "Hg5 mi
5:40 PM99 °FPassing clouds.8 mph47%29.71 "Hg5 mi
5:10 PM99 °FPassing clouds.7 mph47%29.68 "Hg5 mi
4:40 PM99 °FPassing clouds.8 mph47%29.68 "Hg5 mi
4:10 PM100 °FPassing clouds.9 mph45%29.68 "Hg5 mi
3:40 PM100 °FPassing clouds.7 mph45%29.68 "Hg5 mi
3:10 PM100 °FPassing clouds.12 mph45%29.68 "Hg5 mi
2:40 PM99 °FPassing clouds.12 mph47%29.71 "Hg5 mi
2:10 PM97 °FPassing clouds.14 mph50%29.71 "Hg5 mi
1:40 PM97 °FPassing clouds.12 mph50%29.74 "Hg5 mi
1:10 PM97 °FPassing clouds.14 mph50%29.74 "Hg5 mi
12:40 PM97 °FPassing clouds.9 mph50%29.77 "Hg5 mi
12:10 PM97 °FPassing clouds.15 mph50%29.77 "Hg5 mi
11:40 AM95 °FPassing clouds.13 mph53%29.77 "Hg5 mi
11:10 AM93 °FPassing clouds.9 mph53%29.77 "Hg4 mi
10:40 AM91 °FPassing clouds.16 mph56%29.80 "Hg4 mi
10:10 AM90 °FPassing clouds.14 mph63%29.80 "Hg4 mi
9:40 AM90 °FPassing clouds.13 mph59%29.80 "Hg4 mi
9:10 AM88 °FPassing clouds.16 mph66%29.80 "Hg4 mi
8:40 AM86 °FHaze.14 mph70%29.80 "Hg3 mi
8:10 AM86 °FHaze.14 mph62%29.80 "Hg3 mi
7:40 AM84 °FHaze.10 mph70%29.77 "Hg3 mi
7:10 AM84 °FHaze.9 mph70%29.77 "Hg3 mi
6:40 AM84 °FHaze.12 mph66%29.77 "Hg3 mi
6:10 AM82 °FHaze.9 mph70%29.77 "Hg3 mi
5:40 AM82 °FHaze.8 mph74%29.77 "Hg3 mi
4:40 AM81 °FPassing clouds.3 mph79%29.74 "Hg4 mi
4:10 AM84 °FPassing clouds.7 mph66%29.74 "Hg4 mi
3:40 AM84 °FPassing clouds.7 mph66%29.74 "Hg4 mi
3:10 AM84 °FPassing clouds.6 mph66%29.74 "Hg4 mi
Weather by CustomWeather, © 2015

See weather overviewHow to use our weather pages